User: anonymous   Login
Location: M.A.R.S.Observatory
(35.4031°N, 81.5481°W)
Time: 04:44:39
(UTC-05:00)
Language:

SL-8 R/B - Orbit

View from above orbital plane
View from above orbital plane
View from above satellite
View from above satellite

Ground track
Ground track

The orbit data is extracted from the following two-line orbital elements,

1 33066U 08031G   14326.07253630  .00000423  00000-0  10437-3 0  9472
2 33066 048.4416 177.1040 0007534 115.9451 048.3017 14.68977456344801
Epoch (UTC): 22 November 2014 01:44:27
Eccentricity: 0.0007534
inclination: 48.4416°
perigee height: 659 km
apogee height: 669 km
right ascension of ascending node: 177.1040°
argument of perigee: 115.9451°
revolutions per day: 14.68977456
mean anomaly at epoch: 48.3017°
orbit number at epoch: 34480

The dashed part of the orbit path shows where the satellite is in the earth's shadow,  

DLR